User: anonymous   Login
Location: Caltech
(34.1382°N, 118.1253°W)
Time: 14:37:53
(UTC-08:00)
Language:

Meteor 1-11 Rocket - Orbit

View from above orbital plane
View from above orbital plane
View from above satellite
View from above satellite

Ground track
Ground track

The orbit data is extracted from the following two-line orbital elements,

1 05918U 72022B   15031.19289957  .00000150  00000-0  83660-4 0  3577
2 05918 081.2354 085.5202 0057928 245.0028 168.0164 14.05748724196040
Epoch (UTC): 31 January 2015 04:37:46
Eccentricity: 0.0057928
inclination: 81.2354°
perigee height: 832 km
apogee height: 916 km
right ascension of ascending node: 85.5202°
argument of perigee: 245.0028°
revolutions per day: 14.05748724
mean anomaly at epoch: 168.0164°
orbit number at epoch: 19604

The dashed part of the orbit path shows where the satellite is in the earth's shadow,  

DLR